Tracking 19709 objects as of 21-Jun-2019
HD Live streaming from Space Station
objects crossing your sky now

FENGYUN 1C DEB

Track FENGYUN 1C DEB now!
10-day predictions


NORAD ID: 31226
Int'l Code: 1999-025BLG
Perigee: 729.4 km
Apogee: 914.5 km
Inclination: 98.6 °
Period: 101.2 minutes
Semi major axis: 7192 km
RCS: 0.0061 m2 (small)
Launch date: May 10, 1999
Source: People's Republic of China (PRC)
Launch site: Taiyaun Space Center, China (TSC)

Note: This is SATELLITE DEBRIS
aabbcc
Your satellite tracking list
Your tracking list is empty




NASA's NSSDC Master Catalog

Two Line Element Set (TLE):
1 31226U 99025BLG 19170.40804171  .00000103  00000-0  59764-4 0  9991
2 31226  98.5752 231.9730 0128681 282.2116  76.4676 14.23121696635066
Source of the keplerian elements: AFSPC